Showing default

OPS 9311 (IDSCS 1), 2215

Orbit data source: Space-Track

OPS 9311 (IDSCS 1), 2215 is a payload satellite owned by USAF SSD (US) in GEO that was launched on Thu, 16 Jun 1966 UTC via a TITAN IIIC launch vehicle from the Air Force Eastern Test Range (AFETR). Payloads include a variety of satellites, spacecraft, and rockets equipped with specific instruments for various scientific and technological missions. These include communications satellites like Starlink; space stations such as the ISS; scientific satellites like the Hubble; Earth observation satellites from companies like Planet Labs, Umbra, and HawkEye 360; GPS; miniature CubeSats for education and research; and military/defense satellites.

Not visible in the next 10 days
OPS 9311 (IDSCS 1) details
Identifier
2215, 1966-053B
Orbit
GEO
Last TLE update18 hours ago
Origin
Flag of USUSAF SSD (US)
ManufacturerPhilco-Ford WDL
MissionNon-operational Defense Communications
Bus & MotorIDCSP, Unknown motor
Mass45 kg wet, 45 kg dry
Launch date (UTC)
1966-06-16 (59 years ago)
Launch vehicle
TITAN IIIC
Launch site
Air Force Eastern Test Range (AFETR)
Object type
Payload
Rocket body
Debris
Shape & HBRIco Poly, 0.9 m
Radar Cross Section0.926 m², Medium (>0.1 m² and < 1m²)

Expand to show TLE details & history

TLE from 18 hours ago
0 OPS 9311 (IDSCS 1)
1 02215U 66053B   24355.78521714 -.00000090  00000-0  00000-0 0  9994
2 02215   7.6628  48.5374 0031839 209.4146 150.3479  1.07909660128505
Epoch: 2024-12-20T18:50Z
Definitive object data (Epoch: 2024-12-20T18:50:42.76Z)
Latitude-0°
Longitude35.96091°
Altitude33,883.703 km
Speed3.142 km/s
True Right ascension03h 13m 56s
True Declination0° 00' 00"
Sunlit
Object was in daylight at TLE epoch
Visualization TLE readout
Latitude-7.3436°
Longitude-36.80557°
Altitude33,745.282 km
Speed3.153 km/s
Apparent Right ascension22h 30m 47s
Apparent Declination-11° 40' 50"
Sunlit
Object is in daylight
Visualization observer readout
Local Sidereal Time11:36:01
Azimuth31.553° NE
Elevation-58.298°
Doppler factor1
Orbital elements
Apogee altitude33,901.665 km
Perigee altitude33,645.985 km
Semi-major axis40,151.962 km
Eccentricity0.0031839
Inclination7.6628°
RAAN48.5374°
Arg. of periapsis209.4146°
True anomaly150.52778°
Mean anomaly150.3479°
Eccentric anomaly150.4379°
Mean motion0.26976 °/min
BSTARUnknown
Orbital period1334.5 mins
Loading historical data...
2215 neighbors
Authenticating...
Loading maneuver chart data...
Loading historical data...
Loading historical data...
Loading historical data...
Loading historical data...
Loading historical data...
Loading historical data...
Loading historical data...

OPS 9311 (IDSCS 1) Visibility forecast

Observer location: undefined°, undefined

OPS 9311 (IDSCS 1) is not visible in the next 10 days
Span
Click to sort rows by Start time (UTC) header in descending order
Start Az.
Max El. time (UTC)
Max El. Az.
Max El.
End time (UTC)
End Az.
|